Weather Roundup
Issued by NWS

Home | Current Version | Previous Version | Graphics & Text | Print | Product List | Glossary Off
Versions: 1 2 3 4 5 6 7 8 9 10 11 12 13 14 15 16 17 18 19 20 21 22 23 24 25 26 27 28 29 30 31 32 33 34 35 36 37 38 39 40 41 42 43 44 45 46 47 48 49 50

000
NZUS93 KARX 211410
HRRWXR

CURRENT HOURLY OBSERVATIONS ACROSS
MUCH OF THE UPPER MISSISSIPPI VALLEY
NATIONAL WEATHER SERVICE LA CROSSE WI
900 AM CDT MON JUL 21 2014


...SOUTHEAST MINNESOTA...


CITY           SKY/WX    TMP DP  RH WIND       PRES   REMARKS
ROCHESTER      CLOUDY    73  66  78 S14       29.98R
ROCHESTER/MAYO CLOUDY    72  64  75 SE12      29.97R
WINONA         CLOUDY    73  64  73 S3        29.97S
AUSTIN         PTSUNNY   73  66  78 S7G16     29.96S
ALBERT LEA     SUNNY     75  66  73 S12       29.95R
DODGE CENTER   PTSUNNY   73  68  83 S12       29.96S
PRESTON        PTSUNNY   71  69  92 S14       29.99S
OWATONNA       SUNNY     77  66  69 S10G16    29.94R
FARIBAULT      SUNNY     81  64  57 S10       29.93R
$$

...ELSEWHERE IN MINNESOTA...


CITY           SKY/WX    TMP DP  RH WIND       PRES   REMARKS
MINNEAPOLIS    MOSUNNY   77  68  73 SE9       29.92R
INTNL FALLS    MOSUNNY   76  70  82 CALM      29.89R
DULUTH         SUNNY     77  69  76 SW9       29.91R
RED WING       MOSUNNY   79  66  65 SE9       29.93R
REDWOOD FALLS  SUNNY     76  69  79 S10       29.87R
MANKATO        MOSUNNY   75  64  69 S14       29.91S
WORTHINGTON    SUNNY     73  70  88 S10       29.90R
FAIRMONT       SUNNY     75  64  69 S12       29.91R
$$

...SOUTHWEST WISCONSIN...


CITY           SKY/WX    TMP DP  RH WIND       PRES   REMARKS
LA CROSSE      CLOUDY    76  65  68 S12       29.99R
PRAIRIE DU CHI PTSUNNY   73  62  68 E6        30.02S
BOSCOBEL       CLOUDY    75  64  68 VRB5      30.03S
LONE ROCK      CLOUDY    77  65  66 S5        30.04F
PLATTEVILLE    PTSUNNY   71  65  82 S8        30.07S
FORT MC COY    CLOUDY    72  62  71 S6        30.02S
CAMP DOUGLAS   CLOUDY    72  66  83 S9        30.02S
VIROQUA        CLOUDY    72  64  78 S7        30.03S
WIS DELLS      CLOUDY    72  61  67 S9        30.04S
$$

...ELSEWHERE IN WISCONSIN...


CITY           SKY/WX    TMP DP  RH WIND       PRES   REMARKS
MILWAUKEE      SUNNY     74  62  66 S13       30.08F
MADISON        SUNNY     74  62  66 S10       30.06F
GREEN BAY      SUNNY     75  64  68 SW13G22   30.03S
EAU CLAIRE     CLOUDY    76  67  73 S6        29.96S
BLACK RVR FLS  CLOUDY    72  65  77 S3        29.99S
MEDFORD        CLOUDY    69  65  85 S7        30.02R
WAUSAU         CLOUDY    70  64  81 S7        30.01R
WIS RAPIDS     CLOUDY    71  63  75 S9        30.04R
MARSHFIELD     CLOUDY    70  65  84 S8        30.01S
RICE LAKE      PTSUNNY   75  66  72 S9        29.97R
$$

...NORTHEAST IOWA...


CITY           SKY/WX    TMP DP  RH WIND       PRES   REMARKS
WATERLOO       SUNNY     74  65  73 SE12      29.98R
DUBUQUE        CLOUDY    69  65  86 S12       30.06S
DECORAH        CLOUDY    73  66  78 S7G16     30.00S
MASON CITY     PTSUNNY   74  68  81 SE9       29.98R
CHARLES CITY   MOSUNNY   73  66  78 SE10      29.99R
OELWEIN        MOSUNNY   73  68  83 SE15      30.01S
$$

...ELSEWHERE IN IOWA...


CITY           SKY/WX    TMP DP  RH WIND       PRES   REMARKS
DES MOINES     MOSUNNY   78  68  71 S12       29.94S
IOWA CITY      SUNNY     73  67  81 SE10      30.04S
FORT DODGE     SUNNY     75  70  83 S8        29.93R
MARSHALLTOWN   MOSUNNY   74  67  78 S8        29.97R
CEDAR RAPIDS   SUNNY     73  65  75 S12       30.01F
$$

...NORTHERN ILLINOIS...


CITY           SKY/WX    TMP DP  RH WIND       PRES   REMARKS
CHICAGO-OHARE  SUNNY     75  61  61 SW8       30.11S
DUPAGE         SUNNY     75  64  68 S9        30.12R
CHICAGO-MIDWAY SUNNY     77  63  61 S7        30.12R
MOLINE         SUNNY     73  64  73 S7        30.07R
ROCKFORD       SUNNY     73  63  70 S9        30.11S
STERLING       SUNNY     73  64  73 S5        30.10R
PEORIA         SUNNY     74  63  68 S8        30.11R
$$

NOTE: "FAIR" INDICATES FEW OR NO CLOUDS BELOW 12,000 FEET WITH NO
SIGNIFICANT WEATHER AND/OR OBSTRUCTIONS TO VISIBILITY. WIND
SPEEDS ARE IN MILES-PER-HOUR.



USA.gov is the U.S. government's official web portal to all federal, state and local government web resources and services.